Change the Weather History Date:

Sunday, February 17, 2013

  Actual Average Record
Temperature  
Mean Temperature 25 °F 38 °F  
Max Temperature 31 °F 47 °F 70 °F (1975)
Min Temperature 18 °F 28 °F -4 °F (1958)
Degree Days  
Heating Degree Days 40 27  
Month to date heating degree days 490 493  
Since 1 July heating degree days 3116 3217  
Cooling Degree Days 0 0  
Month to date cooling degree days 0 0  
Year to date cooling degree days 0 0  
Moisture  
Dew Point 6 °F    
Average Humidity 47    
Maximum Humidity 62    
Minimum Humidity 31    
Precipitation  
Precipitation 0.00 in 0.11 in 1.46 in (1956)
Month to date precipitation 0.76 1.81  
Year to date precipitation 4.68 4.78  
Snow  
Snow 0.00 in - - ()
Month to date snowfall 5.5  
Since 1 September snowfall 11.9  
Snow Depth 0.00 in    
Sea Level Pressure  
Sea Level Pressure 30.21 in    
Wind  
Wind Speed 6 mph (WNW)    
Max Wind Speed 13 mph    
Max Gust Speed 20 mph    
Visibility 10 miles    
Events      
T = Trace of Precipitation, MM = Missing Value Source: NWS Daily Summary

Daily Weather History Graph

Daily Weather History Graph

Search for Another Location

Airport or City:

Trip Planner

Search our weather history database for the weather conditions in past years. The results will help you decide how hot, cold, wet, or windy it might be!

Date:

Astronomy

Feb. 17, 2013 Rise Set
Actual Time 7:17 AM EST 6:10 PM EST
Civil Twilight 6:50 AM EST 6:37 PM EST
Nautical Twilight 6:20 AM EST 7:08 PM EST
Astronomical Twilight 5:49 AM EST 7:39 PM EST
Moon 11:16 AM EST (2/17) 12:59 AM EST (2/17)
Length of Visible Light 11h 46m
Length of Day
10h 53m
Waxing Crescent, 49% of the Moon is Illuminated
Feb 17
Waxing Crescent
Feb 17
First Quarter
Feb 25
Full
Mar 4
Last Quarter
Mar 11
New

Hourly Weather History & Observations

Time (EST) Temp. Windchill Dew Point Humidity Pressure Visibility Wind Dir Wind Speed Gust Speed Precip Events Conditions
12:51 AM 21.9 °F 13.4 °F 9.0 °F 58% 30.11 in 10.0 mi WNW 6.9 mph - N/A   Overcast
1:51 AM 21.0 °F 9.9 °F 6.1 °F 53% 30.12 in 10.0 mi WNW 10.4 mph 18.4 mph N/A   Overcast
2:51 AM 19.9 °F 11.1 °F 5.0 °F 52% 30.12 in 10.0 mi NW 6.9 mph - N/A   Mostly Cloudy
3:51 AM 19.0 °F 11.1 °F 5.0 °F 54% 30.13 in 10.0 mi NW 5.8 mph - N/A   Overcast
4:51 AM 19.0 °F 10.0 °F 6.1 °F 57% 30.14 in 10.0 mi WNW 6.9 mph - N/A   Overcast
5:51 AM 19.0 °F 11.1 °F 7.0 °F 59% 30.16 in 10.0 mi WNW 5.8 mph - N/A   Overcast
6:51 AM 19.0 °F 13.9 °F 7.0 °F 59% 30.17 in 10.0 mi WNW 3.5 mph - N/A   Overcast
7:51 AM 18.0 °F 9.8 °F 7.0 °F 62% 30.19 in 10.0 mi WNW 5.8 mph - N/A   Overcast
8:51 AM 19.9 °F 12.1 °F 8.1 °F 60% 30.22 in 10.0 mi Variable 5.8 mph - N/A   Mostly Cloudy
9:51 AM 19.9 °F 9.3 °F 7.0 °F 57% 30.23 in 10.0 mi NW 9.2 mph - N/A   Partly Cloudy
10:51 AM 25.0 °F 18.1 °F 8.1 °F 49% 30.25 in 10.0 mi WNW 5.8 mph - N/A   Mostly Cloudy
11:51 AM 24.1 °F 16.0 °F 5.0 °F 44% 30.26 in 10.0 mi NW 6.9 mph - N/A   Mostly Cloudy
12:51 PM 26.1 °F 16.8 °F 5.0 °F 41% 30.25 in 10.0 mi West 9.2 mph - N/A   Mostly Cloudy
1:51 PM 27.0 °F 18.7 °F 5.0 °F 39% 30.23 in 10.0 mi West 8.1 mph - N/A   Mostly Cloudy
2:51 PM 30.0 °F 20.5 °F 6.1 °F 36% 30.22 in 10.0 mi West 11.5 mph 18.4 mph N/A   Partly Cloudy
3:51 PM 30.0 °F 21.1 °F 5.0 °F 35% 30.23 in 10.0 mi West 10.4 mph - N/A   Clear
4:51 PM 30.9 °F 23.5 °F 3.9 °F 32% 30.23 in 10.0 mi WNW 8.1 mph - N/A   Clear
5:51 PM 28.9 °F 21.1 °F 3.0 °F 33% 30.24 in 10.0 mi West 8.1 mph - N/A   Clear
6:51 PM 27.0 °F - 3.9 °F 37% 30.25 in 10.0 mi Calm Calm - N/A   Clear
7:51 PM 27.0 °F - 3.0 °F 36% 30.26 in 10.0 mi Calm Calm - N/A   Clear
8:51 PM 25.0 °F - 6.1 °F 45% 30.26 in 10.0 mi Calm Calm - N/A   Clear
9:51 PM 21.9 °F - 8.1 °F 55% 30.28 in 10.0 mi Calm Calm - N/A   Clear
10:51 PM 21.9 °F - 8.1 °F 55% 30.29 in 10.0 mi Calm Calm - N/A   Clear